Weather Roundup
Issued by NWS

Home | Current Version | Previous Version | Graphics & Text | Print | Product List | Glossary Off
Versions: 1 2 3 4 5 6 7 8 9 10 11 12 13 14 15 16 17 18 19 20 21 22 23 24 25 26 27 28 29 30 31 32 33 34 35 36 37 38 39 40 41 42 43 44 45 46 47 48 49 50

934
NZUS93 KARX 121259
HRRWXR

CURRENT HOURLY OBSERVATIONS ACROSS
MUCH OF THE UPPER MISSISSIPPI VALLEY
NATIONAL WEATHER SERVICE LA CROSSE WI
700 AM CST FRI FEB 12 2016


...SOUTHEAST MINNESOTA...


CITY           SKY/WX    TMP DP  RH WIND       PRES   REMARKS
ROCHESTER      MOCLDY     9   4  80 NW15      30.22R WCI  -8
ROCHESTER/MAYO PTSUNNY   11   6  79 NW15G21   30.24R WCI  -6
WINONA         CLOUDY    16  10  79 NW18      30.24S WCI  -1
AUSTIN         FLURRIES  10   9  92 NW15G23   30.24R WCI  -6
ALBERT LEA     CLOUDY    12   9  85 NW14      30.26R WCI  -3
DODGE CENTER   PTCLDY     9   3  78 NW15G21   30.23R WCI  -8
PRESTON        FLURRIES   9   5  86 NW12      30.21R WCI  -6
OWATONNA       MOCLDY    10   3  72 NW12      30.28R WCI  -4
FARIBAULT      CLEAR      9   1  72 NW15      30.29R WCI  -8
$$

...ELSEWHERE IN MINNESOTA...


CITY           SKY/WX    TMP DP  RH WIND       PRES   REMARKS
MINNEAPOLIS    PTCLDY     7   1  76 NW13      30.31R WCI  -9
INTNL FALLS    CLEAR    -11 -17  75 NW12      30.31R WCI -31
DULUTH         PTCLDY    -1 -10  65 NW20G32   30.16R WCI -23
RED WING       NOT AVBL
REDWOOD FALLS  CLEAR      9   2  73 NW18G26   30.38R WCI -10
MANKATO        CLEAR     10   1  67 NW20G26   30.32R WCI  -8
WORTHINGTON    CLOUDY    10   3  72 N18       30.35R WCI  -8
FAIRMONT       CLOUDY    10   3  72 NW16G22   30.31R WCI  -7
$$

...SOUTHWEST WISCONSIN...


CITY           SKY/WX    TMP DP  RH WIND       PRES   REMARKS
LA CROSSE      CLOUDY    14   8  77 NW14      30.22R WCI  -1
PRAIRIE DU CHI CLOUDY    15   8  73 W8        30.23R WCI   4
BOSCOBEL       CLOUDY    14   8  77 W3        30.22R
LONE ROCK      NOT AVBL
PLATTEVILLE    CLOUDY    14  11  87 NW13      30.17R WCI   0
FORT MC COY    FLURRIES  13   8  82 W7        30.19R WCI   3
CAMP DOUGLAS   FLURRIES  12  10  92 W14       30.15R WCI  -3
VIROQUA        PTSUNNY    7   5  89 NW7       30.15R WCI  -4
WIS DELLS      CLOUDY    12   6  76 W10       30.14R WCI  -1
$$

...ELSEWHERE IN WISCONSIN...


CITY           SKY/WX    TMP DP  RH WIND       PRES   REMARKS
MILWAUKEE      CLOUDY    17   2  51 NW12      30.11S WCI   4
MADISON        CLOUDY    14   6  70 NW10      30.15R WCI   1
GREEN BAY      CLOUDY    13   2  61 NW15      30.09S WCI  -3
EAU CLAIRE     NOT AVBL
BLACK RVR FLS  FLURRIES  14   6  73 W7        30.19R WCI   3
MEDFORD        MOCLDY     7  -1  70 NW15G22   30.08R WCI -11
WAUSAU         MOCLDY    10  -1  61 NW14G23   30.08R WCI  -6
WIS RAPIDS     MOCLDY    12   3  67 NW13      30.14R WCI  -3
MARSHFIELD     MOCLDY    11   1  64 NW20G26   30.10R WCI  -7
RICE LAKE      PTCLDY     7  -1  69 NW8G16    30.21S WCI  -6
$$

...NORTHEAST IOWA...


CITY           SKY/WX    TMP DP  RH WIND       PRES   REMARKS
WATERLOO       CLOUDY    15  10  80 NW18      30.25R WCI  -2
DUBUQUE        CLOUDY    15  10  80 NW14      30.18R WCI   0
DECORAH        CLOUDY    12   9  85 NW8G14    30.19S WCI   1
MASON CITY     LGT SNOW  13  10  88 NW17      30.27R FOG     WCI  -4
CHARLES CITY   CLOUDY    14  12  92 NW14      30.24R WCI  -1
OELWEIN        CLOUDY    14  10  85 NW16      30.22S WCI  -2
$$

...ELSEWHERE IN IOWA...


CITY           SKY/WX    TMP DP  RH WIND       PRES   REMARKS
DES MOINES     FLURRIES  19  13  77 NW13      30.30R WCI   6
IOWA CITY      CLOUDY    20  15  81 NW16G24   30.26R WCI   6
FORT DODGE     CLOUDY    16   9  73 NW7       30.33R WCI   6
MARSHALLTOWN   CLOUDY    16  12  84 NW15      30.26R WCI   1
CEDAR RAPIDS   CLOUDY    18  15  88 NW14      30.23R WCI   4
$$

...NORTHERN ILLINOIS...


CITY           SKY/WX    TMP DP  RH WIND       PRES   REMARKS
CHICAGO-OHARE  CLOUDY    19   8  62 W12       30.13F WCI   7
CHICAGO-MIDWAY CLOUDY    21   7  54 W8        30.15F WCI  11
MOLINE         CLOUDY    22  16  78 W13       30.22R WCI  10
ROCKFORD       FLURRIES  17   9  70 W10       30.17F WCI   5
PEORIA         CLOUDY    22  16  78 W5        30.22S WCI  16
$$

NOTE: "FAIR" INDICATES FEW OR NO CLOUDS BELOW 12,000 FEET WITH NO
SIGNIFICANT WEATHER AND/OR OBSTRUCTIONS TO VISIBILITY. WIND
SPEEDS ARE IN MILES-PER-HOUR.




USA.gov is the U.S. government's official web portal to all federal, state and local government web resources and services.